Location: Buch
(49.7331°N, 12.1098°E)
Time: 03:23:16
(UTC+00:00)

ATLAS CENTAUR R/B - Pass Details

Date: 12 May 2021
Orbit: 472 x 671 km, 64.6° (Epoch: 13 June)

Event Time Altitude Azimuth Distance (km) Brightness Sun altitude
Exits shadow 23:40:03 67° 279° (W) 535 1.1 -21.5°
Maximum altitude 23:40:17 70° 312° (NW) 525 1.2 -21.5°
Drops below altitude 10° 23:44:08 10° 37° (NE) 1,732 4.7 -21.4°
Sets 23:46:22 0° 40° (NE) 2,652 5.8 -21.3°
